Time,TemperatureF,DewpointF,PressureIn,WindDirection,WindDirectionDegrees,WindSpeedMPH,WindSpeedGustMPH,Humidity,HourlyPrecipIn,Conditions,Clouds,dailyrainin,SoftwareType,DateUTC
2013-06-14 00:00:00,68.6,61.1,29.99,SE,140,0.0,3.0,77,0.00,CLR,,0.00,WeatherDisplay:10.37,2013-06-14 05:00:00,
2013-06-14 00:10:00,68.8,61.0,30.00,SE,140,0.0,2.0,76,0.00,CLR,,0.00,WeatherDisplay:10.37,2013-06-14 05:10:00,
2013-06-14 00:15:00,69.0,61.1,30.01,SE,140,0.0,1.0,76,0.00,CLR,,0.00,WeatherDisplay:10.37,2013-06-14 05:15:00,
2013-06-14 00:20:00,68.9,61.0,30.01,SE,140,0.0,1.0,76,0.00,CLR,,0.00,WeatherDisplay:10.37,2013-06-14 05:20:00,
2013-06-14 00:25:00,68.6,60.7,30.02,SE,140,0.0,0.0,76,0.00,CLR,,0.00,WeatherDisplay:10.37,2013-06-14 05:25:00,
2013-06-14 00:30:00,68.2,60.7,30.02,SE,140,1.0,2.0,77,0.00,CLR,,0.00,WeatherDisplay:10.37,2013-06-14 05:30:00,
2013-06-14 00:35:00,67.6,60.5,30.02,SE,140,0.0,1.0,78,0.00,CLR,,0.00,WeatherDisplay:10.37,2013-06-14 05:35:00,
2013-06-14 00:40:00,67.2,60.5,30.02,SE,140,1.0,2.0,79,0.00,CLR,,0.00,WeatherDisplay:10.37,2013-06-14 05:40:00,
2013-06-14 00:45:00,66.9,60.5,30.02,SE,140,0.0,2.0,80,0.00,CLR,,0.00,WeatherDisplay:10.37,2013-06-14 05:45:00,
2013-06-14 00:50:00,66.7,60.6,30.01,SE,140,1.0,2.0,81,0.00,CLR,,0.00,WeatherDisplay:10.37,2013-06-14 05:50:00,
2013-06-14 00:55:00,66.7,60.7,30.01,SE,140,1.0,2.0,81,0.00,CLR,,0.00,WeatherDisplay:10.37,2013-06-14 05:55:00,
2013-06-14 01:00:00,67.0,61.0,30.01,SE,140,0.0,2.0,81,0.00,CLR,,0.00,WeatherDisplay:10.37,2013-06-14 06:00:00,
2013-06-14 01:10:00,67.3,60.9,30.02,SE,140,0.0,1.0,80,0.00,CLR,,0.00,WeatherDisplay:10.37,2013-06-14 06:10:00,
2013-06-14 01:15:00,67.4,61.0,30.02,SE,140,0.0,2.0,80,0.00,CLR,,0.00,WeatherDisplay:10.37,2013-06-14 06:15:00,
2013-06-14 01:25:00,67.0,60.6,30.02,SE,140,1.0,2.0,80,0.00,CLR,,0.00,WeatherDisplay:10.37,2013-06-14 06:25:00,
2013-06-14 01:30:00,66.7,60.7,30.02,SE,140,1.0,3.0,81,0.00,CLR,,0.00,WeatherDisplay:10.37,2013-06-14 06:30:00,
2013-06-14 01:40:00,66.9,60.8,30.02,SE,140,1.0,3.0,81,0.00,CLR,,0.00,WeatherDisplay:10.37,2013-06-14 06:40:00,
2013-06-14 01:45:00,67.1,61.0,30.02,SE,140,2.0,3.0,81,0.00,CLR,,0.00,WeatherDisplay:10.37,2013-06-14 06:45:00,
2013-06-14 01:50:00,67.2,60.8,30.02,SE,140,1.0,3.0,80,0.00,CLR,,0.00,WeatherDisplay:10.37,2013-06-14 06:50:00,
2013-06-14 01:55:00,67.2,61.1,30.02,SE,140,2.0,3.0,81,0.00,CLR,,0.00,WeatherDisplay:10.37,2013-06-14 06:55:00,
2013-06-14 02:00:00,67.3,61.2,30.02,SE,140,2.0,3.0,81,0.00,CLR,,0.00,WeatherDisplay:10.37,2013-06-14 07:00:00,
2013-06-14 02:10:00,67.5,61.1,30.01,SE,140,2.0,3.0,80,0.00,CLR,,0.00,WeatherDisplay:10.37,2013-06-14 07:10:00,
2013-06-14 02:15:00,67.6,61.2,30.01,SE,140,1.0,3.0,80,0.00,CLR,,0.00,WeatherDisplay:10.37,2013-06-14 07:15:00,
2013-06-14 02:20:00,67.8,61.0,30.02,SE,140,1.0,3.0,79,0.00,CLR,,0.00,WeatherDisplay:10.37,2013-06-14 07:20:00,
2013-06-14 02:25:00,67.8,61.1,30.02,SE,140,1.0,3.0,79,0.00,CLR,,0.00,WeatherDisplay:10.37,2013-06-14 07:25:00,
2013-06-14 02:30:00,68.0,61.2,30.02,SE,140,1.0,2.0,79,0.00,CLR,,0.00,WeatherDisplay:10.37,2013-06-14 07:30:00,
2013-06-14 02:35:00,67.7,60.6,30.02,SE,140,1.0,3.0,78,0.00,CLR,,0.00,WeatherDisplay:10.37,2013-06-14 07:35:00,
2013-06-14 02:40:00,67.2,60.4,30.02,SE,140,1.0,2.0,79,0.00,CLR,,0.00,WeatherDisplay:10.37,2013-06-14 07:40:00,
2013-06-14 02:45:00,66.6,60.2,30.02,SE,140,0.0,1.0,80,0.00,CLR,,0.00,WeatherDisplay:10.37,2013-06-14 07:45:00,
2013-06-14 02:50:00,66.2,60.2,30.02,SE,140,0.0,1.0,81,0.00,CLR,,0.00,WeatherDisplay:10.37,2013-06-14 07:50:00,
2013-06-14 02:55:00,65.9,60.2,30.02,SE,140,2.0,3.0,82,0.00,CLR,,0.00,WeatherDisplay:10.37,2013-06-14 07:55:00,
2013-06-14 03:00:00,65.6,60.3,30.02,SE,140,2.0,3.0,83,0.00,CLR,,0.00,WeatherDisplay:10.37,2013-06-14 08:00:00,
2013-06-14 03:10:00,65.2,60.2,30.02,SE,140,0.0,2.0,84,0.00,CLR,,0.00,WeatherDisplay:10.37,2013-06-14 08:10:00,
2013-06-14 03:15:00,65.1,60.1,30.02,SE,140,1.0,2.0,84,0.00,CLR,,0.00,WeatherDisplay:10.37,2013-06-14 08:15:00,
2013-06-14 03:20:00,65.0,60.3,30.02,SE,140,1.0,2.0,85,0.00,CLR,,0.00,WeatherDisplay:10.37,2013-06-14 08:20:00,
2013-06-14 03:25:00,64.9,60.2,30.02,SE,140,1.0,3.0,85,0.00,CLR,,0.00,WeatherDisplay:10.37,2013-06-14 08:25:00,
2013-06-14 03:30:00,64.9,60.3,30.01,SE,140,2.0,3.0,85,0.00,CLR,,0.00,WeatherDisplay:10.37,2013-06-14 08:30:00,
2013-06-14 03:40:00,65.3,60.6,30.01,SE,140,2.0,3.0,85,0.00,CLR,,0.00,WeatherDisplay:10.37,2013-06-14 08:40:00,
2013-06-14 03:45:00,65.3,60.6,30.01,SE,140,2.0,4.0,85,0.00,CLR,,0.00,WeatherDisplay:10.37,2013-06-14 08:45:00,
2013-06-14 03:50:00,65.3,60.7,30.00,SE,134,3.0,5.0,85,0.00,CLR,,0.00,WeatherDisplay:10.37,2013-06-14 08:50:00,
2013-06-14 03:55:00,65.7,61.1,30.00,ESE,116,3.0,7.0,85,0.00,CLR,,0.00,WeatherDisplay:10.37,2013-06-14 08:55:00,
2013-06-14 04:00:00,66.0,61.0,30.00,ESE,103,1.0,6.0,84,0.00,CLR,,0.00,WeatherDisplay:10.37,2013-06-14 09:00:00,
2013-06-14 04:10:00,65.8,60.9,29.99,ESE,112,2.0,6.0,84,0.00,CLR,,0.00,WeatherDisplay:10.37,2013-06-14 09:10:00,
2013-06-14 04:15:00,65.7,60.7,29.99,ESE,108,2.0,7.0,84,0.00,CLR,,0.00,WeatherDisplay:10.37,2013-06-14 09:15:00,
2013-06-14 04:20:00,65.5,60.8,29.98,ESE,106,3.0,7.0,85,0.00,CLR,,0.00,WeatherDisplay:10.37,2013-06-14 09:20:00,
2013-06-14 04:25:00,65.3,60.7,29.98,ESE,103,2.0,7.0,85,0.00,CLR,,0.00,WeatherDisplay:10.37,2013-06-14 09:25:00,
2013-06-14 04:30:00,65.3,60.6,29.99,East,98,1.0,6.0,85,0.00,CLR,,0.00,WeatherDisplay:10.37,2013-06-14 09:30:00,
2013-06-14 04:35:00,65.2,60.5,29.99,East,98,2.0,5.0,85,0.00,CLR,,0.00,WeatherDisplay:10.37,2013-06-14 09:35:00,
2013-06-14 04:40:00,65.2,60.5,29.99,East,98,2.0,5.0,85,0.00,CLR,,0.00,WeatherDisplay:10.37,2013-06-14 09:40:00,
2013-06-14 04:45:00,65.1,60.8,29.99,East,98,3.0,7.0,86,0.00,CLR,,0.00,WeatherDisplay:10.37,2013-06-14 09:45:00,
2013-06-14 04:50:00,65.2,60.5,29.98,East,98,2.0,7.0,85,0.00,CLR,,0.00,WeatherDisplay:10.37,2013-06-14 09:50:00,
2013-06-14 04:55:00,65.2,60.5,29.98,East,98,2.0,6.0,85,0.00,CLR,,0.00,WeatherDisplay:10.37,2013-06-14 09:55:00,
2013-06-14 05:00:00,65.2,60.5,29.98,East,99,2.0,5.0,85,0.00,CLR,,0.00,WeatherDisplay:10.37,2013-06-14 10:00:00,
2013-06-14 05:10:00,64.9,60.6,29.99,East,99,2.0,5.0,86,0.00,CLR,,0.00,WeatherDisplay:10.37,2013-06-14 10:10:00,
2013-06-14 05:15:00,65.0,60.7,29.99,East,99,3.0,5.0,86,0.00,CLR,,0.00,WeatherDisplay:10.37,2013-06-14 10:15:00,
2013-06-14 05:20:00,65.1,60.8,29.99,East,99,1.0,3.0,86,0.00,CLR,,0.00,WeatherDisplay:10.37,2013-06-14 10:20:00,
2013-06-14 05:25:00,65.3,61.0,29.99,East,99,1.0,3.0,86,0.00,CLR,,0.00,WeatherDisplay:10.37,2013-06-14 10:25:00,
2013-06-14 05:30:00,65.4,60.7,29.99,East,99,1.0,3.0,85,0.00,CLR,,0.00,WeatherDisplay:10.37,2013-06-14 10:30:00,
2013-06-14 05:35:00,65.5,60.8,29.99,East,99,2.0,5.0,85,0.00,CLR,,0.00,WeatherDisplay:10.37,2013-06-14 10:35:00,
2013-06-14 05:40:00,65.5,60.8,29.99,East,100,2.0,6.0,85,0.00,CLR,,0.00,WeatherDisplay:10.37,2013-06-14 10:40:00,
2013-06-14 05:45:00,65.5,60.8,29.99,East,100,2.0,5.0,85,0.00,CLR,,0.00,WeatherDisplay:10.37,2013-06-14 10:45:00,
2013-06-14 05:50:00,65.4,60.8,30.00,East,100,1.0,2.0,85,0.00,CLR,,0.00,WeatherDisplay:10.37,2013-06-14 10:50:00,
2013-06-14 06:00:00,65.4,61.1,30.00,East,99,2.0,5.0,86,0.00,CLR,,0.00,WeatherDisplay:10.37,2013-06-14 11:00:00,
2013-06-14 06:10:00,65.6,61.3,30.01,East,100,2.0,6.0,86,0.00,BKN,,0.00,WeatherDisplay:10.37,2013-06-14 11:10:00,
2013-06-14 06:15:00,65.7,61.4,30.01,East,100,1.0,3.0,86,0.00,BKN,,0.00,WeatherDisplay:10.37,2013-06-14 11:15:00,
2013-06-14 06:20:00,65.8,61.5,30.01,East,100,2.0,5.0,86,0.00,BKN,,0.00,WeatherDisplay:10.37,2013-06-14 11:20:00,
2013-06-14 06:25:00,66.0,61.7,30.01,East,100,2.0,6.0,86,0.00,BKN,,0.00,WeatherDisplay:10.37,2013-06-14 11:25:00,
2013-06-14 06:30:00,66.2,61.8,30.01,ESE,106,3.0,6.0,86,0.00,BKN,,0.00,WeatherDisplay:10.37,2013-06-14 11:30:00,
2013-06-14 06:40:00,66.5,62.1,30.01,ESE,111,2.0,5.0,86,0.00,BKN,,0.00,WeatherDisplay:10.37,2013-06-14 11:40:00,
2013-06-14 06:45:00,66.7,62.3,30.01,ESE,115,2.0,7.0,86,0.00,BKN,,0.00,WeatherDisplay:10.37,2013-06-14 11:45:00,
2013-06-14 06:50:00,66.9,62.2,30.01,SE,125,3.0,8.0,85,0.00,BKN,,0.00,WeatherDisplay:10.37,2013-06-14 11:50:00,
2013-06-14 06:55:00,67.1,62.4,30.01,ESE,118,2.0,8.0,85,0.00,BKN,,0.00,WeatherDisplay:10.37,2013-06-14 11:55:00,
2013-06-14 07:00:00,67.2,62.6,30.01,ESE,107,2.0,7.0,85,0.00,BKN,,0.00,WeatherDisplay:10.37,2013-06-14 12:00:00,
2013-06-14 07:10:00,67.5,62.8,30.01,East,101,2.0,7.0,85,0.00,FEW,,0.00,WeatherDisplay:10.37,2013-06-14 12:10:00,
2013-06-14 07:20:00,67.9,62.8,30.02,ESE,112,3.0,7.0,84,0.00,FEW,,0.00,WeatherDisplay:10.37,2013-06-14 12:20:00,
2013-06-14 07:30:00,68.3,63.3,30.01,ESE,115,5.0,7.0,84,0.00,FEW,,0.00,WeatherDisplay:10.37,2013-06-14 12:30:00,
2013-06-14 07:40:00,68.7,63.3,30.01,SE,131,2.0,8.0,83,0.00,FEW,,0.00,WeatherDisplay:10.37,2013-06-14 12:40:00,
2013-06-14 07:45:00,68.9,63.6,30.01,SE,146,3.0,6.0,83,0.00,FEW,,0.00,WeatherDisplay:10.37,2013-06-14 12:45:00,
2013-06-14 07:50:00,69.2,63.8,30.00,SSE,154,3.0,7.0,83,0.00,FEW,,0.00,WeatherDisplay:10.37,2013-06-14 12:50:00,
2013-06-14 08:00:00,69.8,64.0,30.01,SE,142,3.0,7.0,82,0.00,FEW,,0.00,WeatherDisplay:10.37,2013-06-14 13:00:00,
2013-06-14 08:10:00,70.3,64.2,30.01,SE,137,3.0,8.0,81,0.00,CLR,,0.00,WeatherDisplay:10.37,2013-06-14 13:10:00,
2013-06-14 08:20:00,70.8,64.3,30.01,South,171,6.0,10.0,80,0.00,CLR,,0.00,WeatherDisplay:10.37,2013-06-14 13:20:00,
2013-06-14 08:25:00,70.8,63.9,30.01,South,173,7.0,13.0,79,0.00,CLR,,0.00,WeatherDisplay:10.37,2013-06-14 13:25:00,
2013-06-14 08:30:00,70.9,64.5,30.01,SSE,168,5.0,10.0,80,0.00,CLR,,0.00,WeatherDisplay:10.37,2013-06-14 13:30:00,
2013-06-14 08:40:00,71.3,64.4,30.01,South,170,5.0,12.0,79,0.00,CLR,,0.00,WeatherDisplay:10.37,2013-06-14 13:40:00,
2013-06-14 08:45:00,71.7,64.8,30.01,South,175,6.0,10.0,79,0.00,CLR,,0.00,WeatherDisplay:10.37,2013-06-14 13:45:00,
2013-06-14 08:50:00,72.1,64.8,30.01,SSE,164,3.0,9.0,78,0.00,CLR,,0.00,WeatherDisplay:10.37,2013-06-14 13:50:00,
2013-06-14 08:55:00,72.5,65.2,30.01,SSE,160,3.0,9.0,78,0.00,CLR,,0.00,WeatherDisplay:10.37,2013-06-14 13:55:00,
2013-06-14 09:00:00,72.8,64.8,30.01,SSE,155,5.0,12.0,76,0.00,CLR,,0.00,WeatherDisplay:10.37,2013-06-14 14:00:00,
2013-06-14 09:10:00,73.4,65.0,30.01,SSE,167,5.0,8.0,75,0.00,CLR,,0.00,WeatherDisplay:10.37,2013-06-14 14:10:00,
2013-06-14 09:15:00,73.5,65.5,30.01,SSE,164,5.0,12.0,76,0.00,CLR,,0.00,WeatherDisplay:10.37,2013-06-14 14:15:00,
2013-06-14 09:20:00,74.0,65.2,30.01,SSE,150,5.0,8.0,74,0.00,CLR,,0.00,WeatherDisplay:10.37,2013-06-14 14:20:00,
2013-06-14 09:25:00,74.2,65.0,30.01,SSE,149,5.0,10.0,73,0.00,CLR,,0.00,WeatherDisplay:10.37,2013-06-14 14:25:00,
2013-06-14 09:30:00,74.3,64.7,30.00,SSE,151,6.0,12.0,72,0.00,CLR,,0.00,WeatherDisplay:10.37,2013-06-14 14:30:00,
2013-06-14 09:40:00,74.4,64.4,29.99,SSE,163,8.0,13.0,71,0.00,CLR,,0.00,WeatherDisplay:10.37,2013-06-14 14:40:00,
2013-06-14 09:45:00,74.6,65.0,29.98,South,169,7.0,12.0,72,0.00,CLR,,0.00,WeatherDisplay:10.37,2013-06-14 14:45:00,
2013-06-14 09:50:00,75.0,64.9,29.98,South,169,6.0,13.0,71,0.00,CLR,,0.00,WeatherDisplay:10.37,2013-06-14 14:50:00,
2013-06-14 09:55:00,75.4,64.9,29.98,South,175,6.0,13.0,70,0.00,CLR,,0.00,WeatherDisplay:10.37,2013-06-14 14:55:00,
2013-06-14 10:00:00,75.6,65.1,29.98,South,173,9.0,14.0,70,0.00,CLR,,0.00,WeatherDisplay:10.37,2013-06-14 15:00:00,
2013-06-14 10:10:00,75.4,64.9,29.98,SSE,166,7.0,15.0,70,0.00,CLR,,0.00,WeatherDisplay:10.37,2013-06-14 15:10:00,
2013-06-14 10:15:00,75.5,65.1,29.97,SSE,162,8.0,15.0,70,0.00,CLR,,0.00,WeatherDisplay:10.37,2013-06-14 15:15:00,
2013-06-14 10:20:00,75.7,65.3,29.97,SSE,161,7.0,13.0,70,0.00,CLR,,0.00,WeatherDisplay:10.37,2013-06-14 15:20:00,
2013-06-14 10:25:00,76.2,65.3,29.97,SSE,167,9.0,14.0,69,0.00,CLR,,0.00,WeatherDisplay:10.37,2013-06-14 15:25:00,
2013-06-14 10:30:00,76.7,66.2,29.97,South,171,7.0,13.0,70,0.00,CLR,,0.00,WeatherDisplay:10.37,2013-06-14 15:30:00,
2013-06-14 10:40:00,77.1,66.5,29.97,SSE,163,8.0,15.0,70,0.00,CLR,,0.00,WeatherDisplay:10.37,2013-06-14 15:40:00,
2013-06-14 10:50:00,77.7,66.3,29.97,South,170,7.0,16.0,68,0.00,CLR,,0.00,WeatherDisplay:10.37,2013-06-14 15:50:00,
2013-06-14 11:00:00,78.3,66.9,29.98,South,170,6.0,11.0,68,0.00,CLR,,0.00,WeatherDisplay:10.37,2013-06-14 16:00:00,
2013-06-14 11:10:00,79.5,67.1,29.97,SSE,168,7.0,12.0,66,0.00,CLR,,0.00,WeatherDisplay:10.37,2013-06-14 16:10:00,
2013-06-14 11:15:00,79.4,66.6,29.97,SSE,165,8.0,15.0,65,0.00,CLR,,0.00,WeatherDisplay:10.37,2013-06-14 16:15:00,
2013-06-14 11:20:00,79.5,67.6,29.97,SSE,166,5.0,13.0,67,0.00,CLR,,0.00,WeatherDisplay:10.37,2013-06-14 16:20:00,
2013-06-14 11:25:00,79.8,66.5,29.97,SSE,161,8.0,13.0,64,0.00,CLR,,0.00,WeatherDisplay:10.37,2013-06-14 16:25:00,
2013-06-14 11:30:00,79.5,66.7,29.97,SSE,160,6.0,17.0,65,0.00,CLR,,0.00,WeatherDisplay:10.37,2013-06-14 16:30:00,
2013-06-14 11:40:00,79.6,67.2,29.97,SSE,152,6.0,10.0,66,0.00,CLR,,0.00,WeatherDisplay:10.37,2013-06-14 16:40:00,
2013-06-14 11:45:00,80.0,67.2,29.97,SSE,149,7.0,14.0,65,0.00,CLR,,0.00,WeatherDisplay:10.37,2013-06-14 16:45:00,
2013-06-14 11:55:00,80.5,67.2,29.96,SSE,149,8.0,14.0,64,0.00,CLR,,0.00,WeatherDisplay:10.37,2013-06-14 16:55:00,
2013-06-14 12:00:00,80.8,67.9,29.96,SSE,161,6.0,12.0,65,0.00,CLR,,0.00,WeatherDisplay:10.37,2013-06-14 17:00:00,
2013-06-14 12:10:00,81.6,67.7,29.96,SSE,153,7.0,12.0,63,0.00,CLR,,0.00,WeatherDisplay:10.37,2013-06-14 17:10:00,
2013-06-14 12:15:00,81.8,67.5,29.95,SSE,147,7.0,16.0,62,0.00,CLR,,0.00,WeatherDisplay:10.37,2013-06-14 17:15:00,
2013-06-14 12:20:00,82.0,67.7,29.95,SE,146,7.0,18.0,62,0.00,CLR,,0.00,WeatherDisplay:10.37,2013-06-14 17:20:00,
2013-06-14 12:25:00,81.9,67.6,29.95,SSE,151,7.0,14.0,62,0.00,CLR,,0.00,WeatherDisplay:10.37,2013-06-14 17:25:00,
2013-06-14 12:30:00,82.0,67.7,29.94,SSE,158,7.0,13.0,62,0.00,CLR,,0.00,WeatherDisplay:10.37,2013-06-14 17:30:00,
2013-06-14 12:40:00,82.2,67.8,29.94,SSE,154,7.0,14.0,62,0.00,CLR,,0.00,WeatherDisplay:10.37,2013-06-14 17:40:00,
2013-06-14 12:45:00,82.1,68.2,29.94,SSE,147,6.0,13.0,63,0.00,CLR,,0.00,WeatherDisplay:10.37,2013-06-14 17:45:00,
2013-06-14 12:55:00,82.6,68.2,29.94,SSE,156,6.0,12.0,62,0.00,CLR,,0.00,WeatherDisplay:10.37,2013-06-14 17:55:00,
2013-06-14 13:00:00,82.8,68.4,29.94,SSE,156,7.0,12.0,62,0.00,CLR,,0.00,WeatherDisplay:10.37,2013-06-14 18:00:00,
2013-06-14 13:10:00,83.5,69.1,29.94,SSE,165,7.0,12.0,62,0.00,CLR,,0.00,WeatherDisplay:10.37,2013-06-14 18:10:00,
2013-06-14 13:15:00,83.7,68.8,29.94,SSE,162,5.0,10.0,61,0.00,CLR,,0.00,WeatherDisplay:10.37,2013-06-14 18:15:00,
2013-06-14 13:20:00,83.8,68.0,29.94,SSE,159,7.0,12.0,59,0.00,CLR,,0.00,WeatherDisplay:10.37,2013-06-14 18:20:00,
2013-06-14 13:30:00,84.0,68.1,29.94,SE,144,6.0,12.0,59,0.00,CLR,,0.00,WeatherDisplay:10.37,2013-06-14 18:30:00,
2013-06-14 13:40:00,84.5,68.6,29.94,SSE,153,7.0,10.0,59,0.00,CLR,,0.00,WeatherDisplay:10.37,2013-06-14 18:40:00,
2013-06-14 13:45:00,84.6,68.7,29.94,SE,134,6.0,12.0,59,0.00,CLR,,0.00,WeatherDisplay:10.37,2013-06-14 18:45:00,
2013-06-14 13:55:00,85.0,69.0,29.94,SE,133,7.0,17.0,59,0.00,CLR,,0.00,WeatherDisplay:10.37,2013-06-14 18:55:00,
2013-06-14 14:00:00,85.3,69.8,29.94,SSE,148,5.0,21.0,60,0.00,CLR,,0.00,WeatherDisplay:10.37,2013-06-14 19:00:00,
2013-06-14 14:10:00,85.5,69.6,29.93,SSE,147,6.0,14.0,59,0.00,CLR,,0.00,WeatherDisplay:10.37,2013-06-14 19:10:00,
2013-06-14 14:20:00,85.8,70.3,29.93,SSE,160,8.0,12.0,60,0.00,CLR,,0.00,WeatherDisplay:10.37,2013-06-14 19:20:00,
2013-06-14 14:30:00,85.8,70.8,29.93,SSE,162,7.0,12.0,61,0.00,CLR,,0.00,WeatherDisplay:10.37,2013-06-14 19:30:00,
2013-06-14 14:40:00,86.0,70.0,29.92,SSE,156,7.0,13.0,59,0.00,CLR,,0.00,WeatherDisplay:10.37,2013-06-14 19:40:00,
2013-06-14 14:45:00,86.2,71.2,29.92,SSE,157,6.0,12.0,61,0.00,CLR,,0.00,WeatherDisplay:10.37,2013-06-14 19:45:00,
2013-06-14 14:50:00,86.5,71.0,29.91,SSE,155,6.0,12.0,60,0.00,CLR,,0.00,WeatherDisplay:10.37,2013-06-14 19:50:00,
2013-06-14 15:00:00,86.9,72.3,29.90,SSE,164,5.0,10.0,62,0.00,CLR,,0.00,WeatherDisplay:10.37,2013-06-14 20:00:00,
2013-06-14 15:10:00,87.3,72.7,29.90,SSE,161,7.0,16.0,62,0.00,FEW,,0.00,WeatherDisplay:10.37,2013-06-14 20:10:00,
2013-06-14 15:15:00,87.2,72.1,29.90,South,169,6.0,13.0,61,0.00,FEW,,0.00,WeatherDisplay:10.37,2013-06-14 20:15:00,
2013-06-14 15:20:00,87.2,72.1,29.90,South,173,7.0,12.0,61,0.00,FEW,,0.00,WeatherDisplay:10.37,2013-06-14 20:20:00,
2013-06-14 15:25:00,87.1,72.0,29.90,SSE,165,7.0,13.0,61,0.00,FEW,,0.00,WeatherDisplay:10.37,2013-06-14 20:25:00,
2013-06-14 15:30:00,87.1,72.5,29.90,SSE,152,7.0,19.0,62,0.00,FEW,,0.00,WeatherDisplay:10.37,2013-06-14 20:30:00,
2013-06-14 15:40:00,87.4,72.3,29.90,SSE,161,8.0,14.0,61,0.00,FEW,,0.00,WeatherDisplay:10.37,2013-06-14 20:40:00,
2013-06-14 15:45:00,87.5,72.4,29.89,SSE,158,7.0,12.0,61,0.00,FEW,,0.00,WeatherDisplay:10.37,2013-06-14 20:45:00,
2013-06-14 15:50:00,87.6,72.9,29.89,SSE,158,7.0,12.0,62,0.00,FEW,,0.00,WeatherDisplay:10.37,2013-06-14 20:50:00,
2013-06-14 16:00:00,87.5,72.8,29.89,SSE,159,6.0,15.0,62,0.00,FEW,,0.00,WeatherDisplay:10.37,2013-06-14 21:00:00,
2013-06-14 16:10:00,87.8,73.1,29.89,SSE,168,6.0,13.0,62,0.00,FEW,,0.00,WeatherDisplay:10.37,2013-06-14 21:10:00,
2013-06-14 16:20:00,87.3,73.6,29.88,SSE,154,6.0,12.0,64,0.00,FEW,,0.00,WeatherDisplay:10.37,2013-06-14 21:20:00,
2013-06-14 16:25:00,87.7,73.5,29.88,SSE,158,6.0,12.0,63,0.00,FEW,,0.00,WeatherDisplay:10.37,2013-06-14 21:25:00,
2013-06-14 16:30:00,88.0,73.4,29.88,SSE,156,7.0,12.0,62,0.00,FEW,,0.00,WeatherDisplay:10.37,2013-06-14 21:30:00,
2013-06-14 16:40:00,88.3,73.6,29.88,SSE,152,7.0,13.0,62,0.00,FEW,,0.00,WeatherDisplay:10.37,2013-06-14 21:40:00,
2013-06-14 16:45:00,88.4,74.2,29.87,SSE,160,6.0,15.0,63,0.00,FEW,,0.00,WeatherDisplay:10.37,2013-06-14 21:45:00,
2013-06-14 16:50:00,88.4,73.8,29.87,South,171,5.0,12.0,62,0.00,FEW,,0.00,WeatherDisplay:10.37,2013-06-14 21:50:00,
2013-06-14 16:55:00,88.5,73.4,29.87,SSE,158,8.0,14.0,61,0.00,FEW,,0.00,WeatherDisplay:10.37,2013-06-14 21:55:00,
2013-06-14 17:00:00,88.5,73.8,29.87,SSE,157,8.0,14.0,62,0.00,FEW,,0.00,WeatherDisplay:10.37,2013-06-14 22:00:00,
2013-06-14 17:10:00,88.7,74.0,29.86,SSE,158,3.0,10.0,62,0.00,CLR,,0.00,WeatherDisplay:10.37,2013-06-14 22:10:00,
2013-06-14 17:15:00,88.8,74.5,29.86,SSE,161,5.0,12.0,63,0.00,CLR,,0.00,WeatherDisplay:10.37,2013-06-14 22:15:00,
2013-06-14 17:20:00,88.9,74.6,29.86,SSE,163,5.0,13.0,63,0.00,CLR,,0.00,WeatherDisplay:10.37,2013-06-14 22:20:00,
2013-06-14 17:25:00,88.8,74.5,29.86,SSE,159,7.0,18.0,63,0.00,CLR,,0.00,WeatherDisplay:10.37,2013-06-14 22:25:00,
2013-06-14 17:30:00,88.4,73.7,29.85,SSE,156,7.0,12.0,62,0.00,CLR,,0.00,WeatherDisplay:10.37,2013-06-14 22:30:00,
2013-06-14 17:40:00,87.7,74.5,29.85,SSE,149,5.0,10.0,65,0.00,CLR,,0.00,WeatherDisplay:10.37,2013-06-14 22:40:00,
2013-06-14 17:45:00,88.0,75.2,29.85,SSE,161,5.0,9.0,66,0.00,CLR,,0.00,WeatherDisplay:10.37,2013-06-14 22:45:00,
2013-06-14 17:50:00,88.2,74.4,29.85,SSE,153,5.0,12.0,64,0.00,CLR,,0.00,WeatherDisplay:10.37,2013-06-14 22:50:00,
2013-06-14 17:55:00,87.7,74.0,29.85,SSE,152,5.0,10.0,64,0.00,CLR,,0.00,WeatherDisplay:10.37,2013-06-14 22:55:00,
2013-06-14 18:00:00,87.4,74.2,29.85,SSE,166,6.0,13.0,65,0.00,CLR,,0.00,WeatherDisplay:10.37,2013-06-14 23:00:00,
2013-06-14 18:10:00,87.4,74.7,29.85,SSE,157,5.0,8.0,66,0.00,CLR,,0.00,WeatherDisplay:10.37,2013-06-14 23:10:00,
2013-06-14 18:15:00,87.6,74.8,29.85,SSE,154,6.0,10.0,66,0.00,CLR,,0.00,WeatherDisplay:10.37,2013-06-14 23:15:00,
2013-06-14 18:20:00,87.4,74.6,29.85,SSE,152,3.0,10.0,66,0.00,CLR,,0.00,WeatherDisplay:10.37,2013-06-14 23:20:00,
2013-06-14 18:25:00,87.1,74.3,29.85,SSE,152,5.0,10.0,66,0.00,CLR,,0.00,WeatherDisplay:10.37,2013-06-14 23:25:00,
2013-06-14 18:30:00,87.0,74.2,29.85,SSE,148,3.0,7.0,66,0.00,CLR,,0.00,WeatherDisplay:10.37,2013-06-14 23:30:00,
2013-06-14 18:40:00,87.3,75.0,29.86,SE,144,5.0,8.0,67,0.00,CLR,,0.00,WeatherDisplay:10.37,2013-06-14 23:40:00,
2013-06-14 18:45:00,87.2,74.9,29.86,SE,139,3.0,7.0,67,0.00,CLR,,0.00,WeatherDisplay:10.37,2013-06-14 23:45:00,
2013-06-14 18:50:00,86.8,74.6,29.86,SE,133,3.0,5.0,67,0.00,CLR,,0.00,WeatherDisplay:10.37,2013-06-14 23:50:00,
2013-06-14 19:00:00,86.4,75.0,29.86,SE,125,3.0,8.0,69,0.00,CLR,,0.00,WeatherDisplay:10.37,2013-06-15 00:00:00,
2013-06-14 19:10:00,86.6,75.2,29.86,SSE,149,3.0,9.0,69,0.00,CLR,,0.00,WeatherDisplay:10.37,2013-06-15 00:10:00,
2013-06-14 19:15:00,86.7,74.8,29.86,SSE,152,5.0,10.0,68,0.00,CLR,,0.00,WeatherDisplay:10.37,2013-06-15 00:15:00,
2013-06-14 19:20:00,86.7,75.3,29.86,SE,145,2.0,7.0,69,0.00,CLR,,0.00,WeatherDisplay:10.37,2013-06-15 00:20:00,
2013-06-14 19:25:00,86.6,75.3,29.86,SE,135,2.0,9.0,69,0.00,CLR,,0.00,WeatherDisplay:10.37,2013-06-15 00:25:00,
2013-06-14 19:30:00,86.4,73.7,29.86,SE,140,5.0,7.0,66,0.00,CLR,,0.00,WeatherDisplay:10.37,2013-06-15 00:30:00,
2013-06-14 19:40:00,86.1,75.2,29.86,SE,132,2.0,7.0,70,0.00,CLR,,0.00,WeatherDisplay:10.37,2013-06-15 00:40:00,
2013-06-14 19:50:00,85.2,74.3,29.86,SE,146,6.0,9.0,70,0.00,CLR,,0.00,WeatherDisplay:10.37,2013-06-15 00:50:00,
2013-06-14 20:00:00,84.4,73.6,29.86,SE,128,5.0,12.0,70,0.00,CLR,,0.00,WeatherDisplay:10.37,2013-06-15 01:00:00,
2013-06-14 20:10:00,83.4,73.0,29.86,SE,138,7.0,12.0,71,0.00,CLR,,0.00,WeatherDisplay:10.37,2013-06-15 01:10:00,
2013-06-14 20:15:00,83.1,73.1,29.86,SE,142,5.0,10.0,72,0.00,CLR,,0.00,WeatherDisplay:10.37,2013-06-15 01:15:00,
2013-06-14 20:20:00,82.7,72.7,29.86,SE,137,6.0,12.0,72,0.00,CLR,,0.00,WeatherDisplay:10.37,2013-06-15 01:20:00,
2013-06-14 20:25:00,82.5,72.9,29.87,SE,145,6.0,9.0,73,0.00,CLR,,0.00,WeatherDisplay:10.37,2013-06-15 01:25:00,
2013-06-14 20:30:00,82.3,72.7,29.86,SE,140,5.0,12.0,73,0.00,CLR,,0.00,WeatherDisplay:10.37,2013-06-15 01:30:00,
2013-06-14 20:40:00,81.8,72.7,29.86,SE,145,6.0,9.0,74,0.00,CLR,,0.00,WeatherDisplay:10.37,2013-06-15 01:40:00,
2013-06-14 20:45:00,81.7,72.6,29.87,SSE,150,5.0,9.0,74,0.00,CLR,,0.00,WeatherDisplay:10.37,2013-06-15 01:45:00,
2013-06-14 20:50:00,81.5,72.4,29.86,SSE,147,6.0,9.0,74,0.00,CLR,,0.00,WeatherDisplay:10.37,2013-06-15 01:50:00,
2013-06-14 20:55:00,81.4,72.3,29.86,SSE,150,5.0,9.0,74,0.00,CLR,,0.00,WeatherDisplay:10.37,2013-06-15 01:55:00,
2013-06-14 21:00:00,81.3,72.2,29.87,SSE,153,6.0,9.0,74,0.00,CLR,,0.00,WeatherDisplay:10.37,2013-06-15 02:00:00,
2013-06-14 21:10:00,81.2,72.5,29.87,SE,140,6.0,10.0,75,0.00,CLR,,0.00,WeatherDisplay:10.37,2013-06-15 02:10:00,
2013-06-14 21:15:00,81.1,72.5,29.88,SSE,147,5.0,10.0,75,0.00,CLR,,0.00,WeatherDisplay:10.37,2013-06-15 02:15:00,
2013-06-14 21:20:00,81.0,72.3,29.88,SSE,156,5.0,9.0,75,0.00,CLR,,0.00,WeatherDisplay:10.37,2013-06-15 02:20:00,
2013-06-14 21:25:00,80.9,72.2,29.88,SSE,156,5.0,10.0,75,0.00,CLR,,0.00,WeatherDisplay:10.37,2013-06-15 02:25:00,
2013-06-14 21:30:00,80.8,72.1,29.89,SSE,150,6.0,16.0,75,0.00,CLR,,0.00,WeatherDisplay:10.37,2013-06-15 02:30:00,
2013-06-14 21:40:00,80.9,72.2,29.90,SE,129,5.0,12.0,75,0.00,CLR,,0.00,WeatherDisplay:10.37,2013-06-15 02:40:00,
2013-06-14 21:45:00,80.8,72.1,29.90,SE,132,5.0,10.0,75,0.00,CLR,,0.00,WeatherDisplay:10.37,2013-06-15 02:45:00,
2013-06-14 21:50:00,80.7,72.1,29.90,SE,134,5.0,12.0,75,0.00,CLR,,0.00,WeatherDisplay:10.37,2013-06-15 02:50:00,
2013-06-14 22:00:00,80.5,72.3,29.91,SE,133,6.0,12.0,76,0.00,CLR,,0.00,WeatherDisplay:10.37,2013-06-15 03:00:00,
2013-06-14 22:10:00,80.5,72.2,29.92,SE,137,5.0,9.0,76,0.00,CLR,,0.00,WeatherDisplay:10.37,2013-06-15 03:10:00,
2013-06-14 22:15:00,80.4,72.1,29.91,SE,143,5.0,14.0,76,0.00,CLR,,0.00,WeatherDisplay:10.37,2013-06-15 03:15:00,
2013-06-14 22:20:00,80.2,72.0,29.92,SSE,148,5.0,8.0,76,0.00,CLR,,0.00,WeatherDisplay:10.37,2013-06-15 03:20:00,
2013-06-14 22:25:00,80.1,72.2,29.92,SE,144,5.0,9.0,77,0.00,CLR,,0.00,WeatherDisplay:10.37,2013-06-15 03:25:00,
2013-06-14 22:30:00,80.1,72.2,29.92,SSE,147,6.0,12.0,77,0.00,CLR,,0.00,WeatherDisplay:10.37,2013-06-15 03:30:00,
2013-06-14 22:40:00,79.9,72.0,29.92,SSE,158,5.0,12.0,77,0.00,CLR,,0.00,WeatherDisplay:10.37,2013-06-15 03:40:00,
2013-06-14 22:45:00,79.8,71.9,29.92,SSE,154,5.0,13.0,77,0.00,CLR,,0.00,WeatherDisplay:10.37,2013-06-15 03:45:00,
2013-06-14 22:55:00,79.5,71.7,29.91,SSE,151,5.0,12.0,77,0.00,CLR,,0.00,WeatherDisplay:10.37,2013-06-15 03:55:00,
2013-06-14 23:00:00,79.4,71.5,29.91,SSE,156,5.0,10.0,77,0.00,CLR,,0.00,WeatherDisplay:10.37,2013-06-15 04:00:00,
2013-06-14 23:05:00,79.3,71.4,29.92,SSE,160,5.0,10.0,77,0.00,CLR,,0.00,WeatherDisplay:10.37,2013-06-15 04:05:00,
2013-06-14 23:10:00,79.2,71.7,29.91,SSE,161,6.0,14.0,78,0.00,CLR,,0.00,WeatherDisplay:10.37,2013-06-15 04:10:00,
2013-06-14 23:15:00,79.1,71.6,29.91,SSE,157,6.0,13.0,78,0.00,CLR,,0.00,WeatherDisplay:10.37,2013-06-15 04:15:00,
2013-06-14 23:20:00,78.9,71.5,29.91,SSE,162,6.0,10.0,78,0.00,CLR,,0.00,WeatherDisplay:10.37,2013-06-15 04:20:00,
2013-06-14 23:25:00,78.7,71.2,29.91,South,169,6.0,10.0,78,0.00,CLR,,0.00,WeatherDisplay:10.37,2013-06-15 04:25:00,
2013-06-14 23:30:00,78.5,71.5,29.90,SSE,168,7.0,12.0,79,0.00,CLR,,0.00,WeatherDisplay:10.37,2013-06-15 04:30:00,
2013-06-14 23:35:00,78.4,71.3,29.89,SSE,167,9.0,13.0,79,0.00,CLR,,0.00,WeatherDisplay:10.37,2013-06-15 04:35:00,
2013-06-14 23:40:00,78.2,71.1,29.88,SSE,168,8.0,14.0,79,0.00,CLR,,0.00,WeatherDisplay:10.37,2013-06-15 04:40:00,
2013-06-14 23:45:00,78.1,71.0,29.89,SSE,167,7.0,15.0,79,0.00,CLR,,0.00,WeatherDisplay:10.37,2013-06-15 04:45:00,
2013-06-14 23:50:00,77.9,70.8,29.89,SSE,168,6.0,12.0,79,0.00,CLR,,0.00,WeatherDisplay:10.37,2013-06-15 04:50:00,
2013-06-14 23:55:00,77.8,71.1,29.89,South,175,6.0,12.0,80,0.00,CLR,,0.00,WeatherDisplay:10.37,2013-06-15 04:55:00,